GFSFLT2_prec_cthk_087.txt.gz
RH
42 41 42 38 38 38 39 38 40 42 43 45 45 46 53 58 61 65 66 68 70 76 85 88 93 94 95
42 43 35 30 29 29 32 31 32 34 36 39 40 40 44 51 55 57 56 55 59 65 67 70 79 83 85
34 31 29 28 28 29 30 31 30 32 34 35 36 38 39 41 44 45 44 42 42 42 44 46 48 49 52
30 29 26 24 25 26 27 27 27 29 30 32 35 37 38 37 37 36 32 32 30 29 26 22 18 16 16
27 25 24 24 24 23 22 22 21 20 20 20 19 19 18 18 17 16 15 14 14 14 13 13 13 15 16
23 24 24 24 23 23 22 22 25 21 20 19 18 17 17 16 16 15 15 15 16 16 16 16 18 19 21
26 26 26 25 25 24 24 23 24 23 21 21 21 21 21 21 21 21 21 21 19 19 20 22 22 23 23
29 29 28 28 27 27 27 27 27 27 27 27 29 28 28 26 23 20 20 20 21 21 21 22 23 25 27
32 31 31 31 31 31 32 32 35 35 33 33 32 29 24 22 22 21 22 23 24 24 24 24 25 27 28
38 37 36 36 36 35 35 36 37 39 36 34 31 25 24 23 23 24 25 25 26 26 27 27 27 30 31
42 42 41 41 40 40 41 41 40 39 38 35 29 25 25 24 25 27 28 29 28 28 29 30 31 35 39
44 45 45 46 47 47 45 44 42 41 41 37 29 27 26 26 27 31 32 33 35 34 35 38 41 45 47
47 47 48 49 51 51 49 47 46 45 44 37 30 30 30 30 32 35 38 40 40 41 43 49 53 52 51
48 50 51 53 55 54 53 51 50 49 47 40 34 34 34 35 38 41 46 46 45 45 48 53 58 61 60
51 52 53 57 59 59 57 56 56 53 49 41 36 36 38 41 43 47 50 51 51 51 54 57 61 63 65
54 55 57 61 66 65 62 61 59 56 51 44 39 39 41 43 46 49 52 52 51 53 56 58 61 63 62
57 60 62 67 70 68 67 66 64 56 48 43 41 42 44 45 51 55 54 57 54 55 59 57 47 46 47

GFSFLT2_prec_cthk_090.txt.gz
RH
43 44 40 41 36 35 33 33 31 30 32 34 37 38 38 39 46 52 57 61 61 57 57 61 65 70 78
43 40 41 36 31 30 28 29 30 31 32 33 32 32 35 37 39 46 49 50 49 46 43 43 49 51 53
38 36 33 32 29 28 28 29 30 30 29 31 33 34 36 37 37 37 41 43 44 44 41 40 40 42 45
31 32 31 29 26 26 27 28 27 26 26 27 27 29 31 33 35 36 36 35 33 31 31 31 31 28 26
29 28 26 25 25 25 24 24 22 22 22 20 20 20 19 19 19 19 18 18 18 18 17 17 17 16 17
25 25 26 25 25 24 24 23 23 23 23 22 21 21 20 20 19 18 18 17 17 16 14 12 13 12 12
26 27 27 28 26 25 25 25 25 25 25 24 25 24 25 25 24 23 21 18 16 15 16 17 18 18 19
29 30 31 30 29 28 27 27 28 29 30 30 30 31 30 28 27 23 20 20 20 20 20 21 21 20 20
33 34 35 34 33 31 30 31 32 32 34 34 34 33 31 30 26 21 22 22 22 23 24 24 24 24 23
40 41 41 39 38 37 36 36 37 38 38 38 35 34 34 32 25 22 22 22 23 26 27 28 28 28 27
46 45 44 44 43 43 42 42 43 43 41 40 38 38 37 34 26 24 24 24 24 25 27 31 33 31 30
49 47 47 47 47 48 48 48 48 47 46 44 43 43 41 38 29 26 27 28 28 30 33 36 38 38 36
50 49 50 51 51 51 52 53 53 52 51 50 50 49 47 41 35 31 30 32 34 36 38 41 44 46 44
49 50 50 54 55 55 56 58 58 56 54 54 55 54 51 45 41 36 35 37 37 40 43 45 48 51 50
45 48 51 55 59 60 62 64 63 60 58 58 59 60 53 46 41 37 37 37 39 43 47 48 51 49 50
44 46 51 58 63 65 66 69 67 65 64 63 64 62 55 48 42 38 38 39 46 51 49 51 49 50 49
43 49 58 68 67 69 70 73 73 70 70 68 66 63 57 46 41 40 43 52 55 53 54 53 49 49 47

GFSFLT2_prec_cthk_093.txt.gz
RH
44 44 48 45 42 38 33 31 33 32 30 31 32 37 39 39 39 43 48 52 54 55 54 51 49 52 53
46 47 47 43 42 32 30 29 30 32 32 32 35 35 34 36 38 41 42 47 48 49 49 46 45 41 43
51 46 41 37 32 30 29 30 31 32 32 31 32 34 35 35 37 38 39 39 40 42 41 40 40 38 38
40 35 36 36 31 29 28 29 28 27 26 27 27 27 27 29 33 36 37 36 36 36 34 30 31 33 34
37 36 34 31 27 27 27 27 25 24 23 22 21 20 20 19 18 18 18 18 18 18 18 18 17 15 12
35 31 27 27 26 26 26 26 25 25 25 23 22 22 22 21 20 20 20 19 19 18 17 14 12 11 12
30 28 31 28 28 29 29 28 26 26 25 25 25 25 26 26 26 26 25 23 21 18 16 16 16 17 18
31 34 31 31 33 33 32 31 30 29 29 29 30 30 30 31 30 29 27 26 22 20 20 20 20 20 20
36 34 35 37 39 38 37 35 34 34 33 33 34 35 34 33 31 30 31 29 23 21 21 21 22 22 23
37 39 42 44 44 43 42 42 41 39 39 39 38 38 37 36 35 35 34 32 26 22 22 23 23 23 23
44 44 48 49 49 48 47 48 48 47 46 45 43 42 42 41 40 40 39 35 31 26 25 25 25 25 26
46 47 50 50 50 50 51 52 53 53 53 51 50 49 48 47 47 47 46 40 35 32 31 30 30 31 32
48 48 49 51 52 53 53 55 57 57 58 58 56 55 54 53 54 53 51 46 41 37 34 33 33 34 36
46 45 46 48 49 53 56 58 60 63 64 63 62 60 60 61 61 60 54 50 46 41 36 35 36 39 45
43 43 43 43 45 51 56 60 65 68 66 66 64 64 64 65 66 62 56 50 44 39 36 39 44 48 49
39 40 41 42 46 53 60 68 72 73 73 70 68 67 68 69 66 62 56 48 39 38 42 47 53 51 50
39 41 43 44 49 61 68 77 74 76 79 77 74 73 73 71 68 61 51 39 41 47 50 55 56 56 54

GFSFLT2_prec_cthk_096.txt.gz
RH
49 50 47 47 49 48 45 35 30 32 31 29 30 33 38 42 43 41 43 50 53 53 55 53 52 49 47
49 49 48 51 50 48 41 31 29 30 30 29 32 35 38 39 40 41 44 49 50 50 49 50 48 46 43
49 50 50 51 47 44 33 32 33 30 31 31 30 32 36 37 36 39 40 43 44 42 41 40 39 37 36
52 53 52 46 40 36 36 31 29 29 28 27 28 27 27 29 31 35 37 37 37 37 35 35 34 33 31
56 48 42 39 38 38 32 30 28 25 25 24 23 22 20 20 20 20 21 23 25 26 25 22 20 18 18
47 40 37 37 36 33 30 30 26 26 27 26 24 23 22 22 21 20 20 20 21 20 19 17 16 14 12
40 35 38 35 36 32 34 29 30 30 30 28 25 25 25 25 25 26 26 26 24 23 21 20 18 16 15
37 37 35 39 38 37 34 34 34 33 33 31 29 29 30 30 30 30 30 29 28 27 27 25 21 20 18
37 40 40 41 40 40 41 40 39 39 38 36 34 34 35 35 34 34 33 32 32 32 32 29 24 21 20
46 42 44 44 45 48 48 47 47 46 44 43 42 41 40 39 38 38 37 36 36 37 37 33 29 25 23
43 45 46 49 50 53 52 53 52 51 50 51 50 48 47 45 44 44 43 42 42 43 41 38 34 30 28
43 46 51 51 52 54 55 55 55 54 55 56 57 56 55 54 53 51 50 49 50 50 46 43 41 38 33
43 49 51 50 51 53 54 55 56 57 58 59 62 64 63 60 59 57 57 57 57 57 54 49 45 41 37
48 48 49 50 50 49 50 51 52 54 58 61 64 67 68 67 65 60 61 60 60 62 58 52 46 40 34
44 47 46 44 45 46 46 47 49 53 59 64 72 73 72 69 67 65 65 64 62 59 56 49 43 34 37
44 41 42 43 43 42 43 46 52 61 69 73 74 78 77 72 70 68 68 65 62 58 51 42 38 41 45
41 41 42 42 42 43 45 49 58 70 75 73 73 78 78 76 72 70 66 61 58 56 51 43 46 49 53

GFSFLT2_prec_cthk_099.txt.gz
RH
62 60 62 59 52 49 49 48 46 37 37 33 32 33 36 40 41 42 44 50 58 58 60 63 61 57 53
61 61 59 58 55 55 53 49 41 35 32 33 36 33 36 39 41 41 44 48 47 49 51 51 50 49 49
58 59 55 55 58 56 52 47 34 33 33 36 32 32 35 39 41 42 42 41 39 44 44 48 47 44 39
52 51 53 58 56 54 44 38 35 33 37 34 30 29 29 31 35 35 36 37 39 40 39 38 37 35 32
54 56 60 61 51 46 42 36 33 37 29 26 26 25 24 23 23 25 27 30 34 34 34 32 31 28 27
62 67 61 50 46 44 39 37 38 31 29 30 27 27 25 24 23 22 21 20 20 20 21 20 19 17 17
71 62 49 45 42 38 39 40 36 32 35 32 30 29 28 26 26 25 25 24 24 23 23 21 20 20 20
63 52 42 38 39 44 41 42 40 40 38 36 34 34 32 31 31 30 31 30 29 29 28 27 27 28 28
44 40 41 42 42 44 43 46 44 44 43 42 40 38 37 37 36 35 36 36 35 34 33 32 33 33 31
42 42 44 45 46 48 50 49 49 50 50 50 48 45 44 43 42 41 41 40 40 40 39 38 39 38 35
53 52 54 51 50 51 52 54 56 56 56 54 52 51 51 51 49 49 48 47 48 47 46 46 46 45 41
54 56 54 53 51 54 55 56 59 60 59 57 56 56 57 56 57 56 55 54 55 54 53 52 51 50 47
61 57 51 50 53 56 55 54 59 61 58 57 58 60 61 61 62 62 61 61 61 59 58 57 56 55 52
55 51 50 52 56 53 52 54 56 55 53 52 53 55 60 63 63 63 66 66 64 62 60 59 59 56 52
49 49 55 52 49 50 50 48 47 49 49 48 53 58 63 71 70 66 65 64 62 63 62 60 56 51 47
53 52 45 49 51 46 44 44 45 48 48 50 59 63 74 73 76 73 68 64 63 63 62 56 51 50 47
42 43 48 46 45 44 43 44 44 46 50 54 61 72 76 74 77 77 71 67 66 62 59 58 56 52 51

GFSFLT2_prec_cthk_102.txt.gz
RH
64 60 67 67 66 67 67 60 59 56 52 44 38 33 38 43 44 50 49 57 60 69 71 58 62 60 62
64 69 68 67 65 63 61 63 62 59 49 38 39 33 33 42 42 46 52 51 54 60 57 61 57 59 57
63 63 63 61 60 56 57 61 64 57 41 36 35 33 36 41 42 45 47 43 47 49 50 48 48 48 44
61 59 59 58 57 59 60 61 60 41 37 36 35 37 36 38 44 45 44 41 40 41 39 39 39 39 39
60 59 58 60 63 62 65 54 46 41 38 36 34 34 29 31 34 38 38 37 37 38 39 37 36 36 34
63 64 65 69 69 63 56 50 48 41 39 35 37 31 32 30 27 25 24 25 27 30 32 33 32 29 25
69 71 76 74 65 54 53 50 42 38 35 41 35 36 36 34 30 28 26 25 25 24 23 23 22 22 20
75 78 74 65 54 55 48 46 40 40 43 40 42 42 40 38 36 33 32 31 30 30 29 29 28 27 27
83 79 63 50 46 45 42 42 46 48 50 50 47 46 45 43 41 39 38 37 36 36 36 35 34 33 34
59 48 45 48 47 47 50 52 52 54 54 55 55 53 52 50 48 46 45 43 43 42 42 41 40 40 41
50 50 52 49 49 52 56 59 58 57 60 62 61 59 58 56 55 54 53 52 50 49 49 49 48 48 49
49 55 56 58 64 61 58 56 57 61 64 65 65 63 61 61 61 60 59 59 58 56 55 55 54 53 52
61 62 62 66 63 59 54 55 64 62 59 64 65 62 61 61 62 64 64 65 64 61 60 60 59 57 56
56 63 62 63 57 52 54 61 59 56 57 59 58 57 57 55 59 58 60 64 66 66 65 63 62 59 56
63 63 62 55 52 56 61 57 51 53 54 51 50 50 51 55 59 58 68 71 71 71 68 64 61 60 56
60 57 55 56 57 58 52 48 53 51 46 46 48 48 51 57 58 67 73 75 74 72 69 66 61 60 55
54 54 54 54 52 47 48 53 48 44 46 47 48 51 53 57 63 75 75 74 76 73 70 68 66 56 53

GFSFLT2_prec_cthk_105.txt.gz
RH
71 74 71 70 65 67 69 68 65 63 60 60 59 53 45 46 51 48 49 48 54 60 67 70 66 62 56
62 67 71 69 69 69 68 66 63 59 61 63 50 45 41 47 49 52 53 56 57 57 64 71 72 70 63
55 59 61 63 63 65 62 61 57 60 59 54 46 43 41 43 46 49 54 58 67 72 66 65 64 62 59
56 58 60 61 61 61 60 58 62 64 62 47 39 36 35 39 45 46 52 56 54 53 54 53 52 49 48
58 61 63 62 61 62 63 67 67 68 56 41 37 35 36 34 48 51 49 50 46 46 45 44 43 39 38
61 63 64 65 66 68 72 73 69 56 46 40 40 39 34 39 33 34 43 44 42 38 36 36 37 37 37
66 68 69 71 72 74 74 67 60 50 45 49 43 37 40 37 34 38 34 32 30 27 28 30 32 32 28
72 74 78 80 80 73 63 57 54 54 49 40 38 42 42 38 45 41 38 35 33 29 28 27 27 26 26
79 83 85 84 74 58 51 59 55 48 47 43 44 47 49 52 48 46 44 42 40 37 35 34 34 34 34
76 78 76 60 54 48 50 49 49 49 52 53 62 60 57 56 54 53 51 48 46 44 43 42 41 40 40
57 54 50 45 47 50 53 52 54 57 63 65 61 65 66 64 62 60 58 55 54 53 52 50 48 48 47
51 52 51 51 53 55 57 58 59 61 60 60 69 70 67 67 66 64 63 63 62 61 59 57 55 55 55
54 54 55 58 59 66 64 62 64 59 61 70 67 73 77 71 66 66 66 68 67 66 64 62 59 58 59
59 60 60 60 64 69 68 61 55 56 62 67 63 62 63 64 64 65 65 62 60 63 64 65 64 64 65
49 51 56 63 65 64 62 52 53 58 63 56 56 58 57 54 54 55 57 57 57 67 72 72 70 69 68
59 61 62 64 64 61 53 54 59 63 55 53 53 54 51 50 49 52 56 57 59 72 78 78 73 71 68
60 60 59 60 59 57 57 60 59 52 49 52 54 48 49 51 52 54 58 60 67 77 78 79 77 72 70

GFSFLT2_prec_cthk_108.txt.gz
RH
63 62 61 63 63 67 72 74 72 71 69 68 63 61 60 59 64 62 54 54 58 51 57 63 68 80 89
59 57 56 56 57 57 63 64 67 67 64 61 59 57 55 55 61 59 56 59 57 62 67 71 73 74 69
46 49 51 52 56 58 62 65 65 65 61 59 60 54 48 45 54 70 73 75 66 73 74 70 65 71 71
48 49 52 55 59 61 62 65 65 63 62 66 65 52 45 40 47 57 62 62 58 60 68 73 82 76 66
51 52 55 59 60 62 63 63 64 65 70 71 63 49 41 37 40 46 53 58 65 70 77 68 64 62 61
52 56 60 62 63 65 66 67 69 72 76 71 54 41 36 33 33 40 51 61 60 60 60 60 55 52 48
55 59 64 67 68 70 73 75 75 74 65 52 45 40 43 43 42 42 44 41 45 50 47 45 39 37 37
61 63 68 71 74 78 80 78 73 65 59 46 43 48 52 44 38 41 35 34 40 36 34 33 29 30 30
65 68 71 75 78 82 79 71 61 59 54 52 52 51 43 39 42 43 46 50 46 41 40 38 33 31 30
67 71 75 80 80 79 61 56 54 55 52 49 46 50 56 54 56 56 55 53 51 49 47 46 44 40 38
61 58 58 61 57 52 48 49 49 50 47 52 55 60 61 66 67 64 63 60 58 55 53 51 48 47 47
52 51 50 48 46 47 49 49 51 54 57 61 62 64 69 73 69 68 66 66 65 63 60 58 56 56 55
48 50 50 51 51 54 56 59 59 58 59 62 62 66 72 82 82 77 71 70 70 69 68 67 64 62 60
57 54 55 57 58 60 63 67 66 68 67 61 64 72 69 70 69 71 72 71 70 68 65 62 62 62 61
56 57 59 60 62 64 66 73 73 65 58 57 59 65 61 60 61 61 58 57 61 61 59 60 62 65 67
61 59 53 52 55 60 66 65 67 61 56 56 60 59 55 57 58 55 54 54 57 57 57 60 64 70 75
60 60 60 60 64 64 67 66 61 56 55 57 61 58 54 53 55 54 53 54 56 57 58 62 68 73 79

GFSFLT2_prec_cthk_111.txt.gz
RH
56 53 52 51 50 53 51 52 54 58 63 64 64 59 57 56 65 70 62 66 54 52 58 74 79 95 96
42 41 42 42 49 50 51 53 55 61 64 64 58 56 55 54 56 65 67 77 75 71 72 77 70 82 90
42 43 44 47 50 52 52 54 57 62 64 61 57 58 54 54 54 64 65 66 71 73 83 78 77 76 80
48 46 45 49 50 52 53 57 60 63 63 60 59 63 58 55 51 67 69 75 84 76 88 85 90 79 72
47 46 47 51 52 55 57 58 61 62 63 62 65 66 58 52 48 55 70 78 80 97 93 97 93 78 78
46 46 50 55 55 58 61 62 64 65 67 69 71 64 54 45 42 43 52 64 63 59 66 70 79 89 70
51 52 59 58 60 61 64 66 69 73 74 74 69 56 46 40 35 34 41 49 52 57 67 78 81 75 68
56 57 60 61 64 65 67 71 74 76 75 69 57 45 42 43 43 46 48 43 50 53 52 51 51 46 45
59 60 63 65 67 69 73 77 75 71 66 61 54 47 46 47 47 50 48 41 45 38 39 39 36 36 34
61 64 67 69 72 75 78 76 64 60 55 56 50 48 48 48 49 49 44 41 50 48 51 49 44 42 40
61 63 59 59 70 76 72 61 55 54 49 49 49 47 50 55 57 61 60 59 60 59 58 56 54 51 49
49 50 51 49 49 48 47 46 49 52 51 49 51 58 61 62 67 72 75 74 71 69 66 62 60 57 53
49 46 47 49 49 49 48 48 52 53 52 56 60 61 63 66 75 76 73 72 72 72 70 68 66 64 62
52 51 54 53 54 54 52 55 60 63 62 62 64 64 63 65 75 79 77 77 75 74 72 73 72 69 66
62 58 56 57 58 59 60 63 66 69 68 68 68 64 62 68 69 63 67 65 63 62 65 68 67 64 62
61 63 60 56 56 58 59 62 67 71 70 69 61 59 58 60 62 58 58 61 60 57 57 60 60 59 59
63 60 59 60 60 54 56 58 60 67 67 68 63 61 59 60 59 55 56 57 60 58 58 60 59 58 57

GFSFLT2_prec_cthk_114.txt.gz
RH
49 45 42 41 38 38 41 46 46 48 50 51 53 55 53 50 47 52 54 54 59 62 68 59 62 72 88
40 40 41 43 42 42 44 47 46 49 51 53 57 53 53 49 47 54 58 57 57 59 66 64 70 88 95
40 43 42 43 45 46 48 49 47 48 52 55 56 52 55 51 51 61 62 64 66 74 78 87 88 94 93
41 42 45 44 45 49 50 50 51 52 54 57 56 55 59 54 53 62 69 70 71 75 81 90 92 90 95
43 44 44 45 46 51 52 53 54 55 58 62 58 59 64 57 53 58 67 76 73 75 77 88 93 94 91
49 46 48 48 50 54 55 56 58 59 62 63 64 67 69 57 49 49 64 76 84 91 93 95 94 98 97
50 51 51 55 55 54 56 59 61 64 68 69 70 73 68 53 44 41 43 57 73 80 76 87 85 79 78
57 56 54 57 58 60 62 64 69 69 73 73 72 66 51 43 41 40 38 40 42 60 62 61 64 70 80
59 62 60 57 61 65 64 69 74 76 76 69 64 59 50 42 42 45 45 43 44 46 45 55 56 58 56
62 65 63 66 68 71 71 76 79 76 65 61 57 56 46 46 46 47 48 48 49 49 46 46 41 39 44
61 61 63 65 66 71 76 80 78 67 55 47 51 53 52 51 48 48 49 48 47 45 47 52 51 49 46
55 55 55 55 54 52 53 54 54 54 55 55 49 50 51 54 60 65 66 68 67 63 60 61 64 62 62
55 54 52 50 50 50 50 51 52 51 53 54 52 55 62 65 64 69 71 69 69 71 72 71 70 70 69
58 55 54 53 53 53 55 55 53 53 56 57 57 60 64 66 67 71 76 78 75 75 77 77 76 76 74
61 61 61 62 60 58 59 60 59 61 64 65 69 71 72 72 70 70 74 73 74 70 68 74 79 77 73
71 69 65 66 60 58 60 63 63 64 68 72 73 72 70 67 65 65 66 66 59 63 63 60 60 61 61
73 69 63 62 63 62 59 56 56 60 62 68 75 74 72 63 61 62 62 63 59 58 59 61 61 61 63

GFSFLT2_prec_cthk_117.txt.gz
RH
47 48 43 40 39 40 39 41 43 43 43 40 44 45 47 46 44 43 47 39 45 46 45 50 59 64 67
44 42 38 39 40 40 41 42 44 43 43 43 44 46 46 44 44 45 50 49 49 51 47 54 57 70 76
40 38 37 40 42 43 45 44 43 46 43 46 48 48 49 47 44 48 60 59 60 60 55 60 66 80 89
38 37 39 43 43 46 48 49 49 48 47 47 51 50 51 53 49 51 63 66 70 70 72 73 82 93 93
40 42 46 48 48 51 50 52 53 53 52 54 53 51 54 57 53 53 64 67 80 80 79 86 91 92 89
44 46 48 48 49 52 54 53 56 56 55 58 57 56 58 63 58 52 59 75 81 82 78 85 95 99 97
50 50 50 51 52 54 56 57 58 58 60 61 61 61 66 66 60 51 47 59 81 81 96 94 93 95 98
52 54 54 55 58 58 58 57 58 62 65 68 66 66 66 61 52 47 40 42 54 74 83 96 87 90 89
54 57 58 60 60 60 61 63 67 70 74 72 66 64 61 53 44 41 38 39 38 39 57 70 74 71 68
60 61 63 63 65 66 65 67 74 74 76 65 60 57 50 41 44 44 45 47 49 47 44 46 50 54 59
60 62 61 60 60 61 66 72 77 76 73 58 48 47 50 48 49 50 50 51 52 51 50 51 51 47 48
58 57 54 50 50 53 50 52 58 58 54 53 54 51 51 52 54 54 53 56 60 60 57 54 50 49 53
59 58 55 52 50 50 51 51 49 49 49 50 52 52 51 52 60 67 71 71 72 72 70 68 67 64 65
59 55 55 54 53 53 53 54 52 50 51 50 52 53 54 61 68 69 73 75 74 75 74 75 77 77 75
60 55 56 58 62 59 59 58 55 55 57 57 60 60 64 66 70 72 73 78 79 79 79 76 80 85 83
68 67 65 66 65 61 60 60 59 60 62 63 65 69 76 77 75 75 74 72 77 74 68 69 67 64 68
70 67 69 63 61 62 62 60 56 59 63 66 67 72 73 75 76 68 67 66 65 67 70 61 63 68 66

GFSFLT2_prec_cthk_123.txt.gz
RH
76 72 67 58 52 47 40 34 31 32 33 34 36 36 35 37 37 37 35 34 38 35 35 32 33 35 40
75 72 66 55 46 40 36 33 32 33 35 37 38 39 39 38 39 41 39 42 42 38 39 37 36 36 35
78 66 53 45 41 37 36 35 36 37 41 41 41 40 42 43 43 43 41 46 46 44 47 43 44 42 43
73 59 53 46 40 39 40 40 41 43 42 43 41 43 45 48 50 47 44 49 54 56 56 54 55 54 58
64 57 52 46 43 44 46 44 44 44 43 43 45 47 47 49 50 49 49 53 63 67 66 70 69 69 70
65 58 52 48 50 51 49 45 44 46 45 45 46 47 49 51 52 55 51 52 66 72 71 71 72 78 81
63 59 55 53 54 50 46 46 46 47 47 49 49 51 53 55 56 55 49 50 65 72 79 82 83 77 82
63 58 56 55 51 49 49 50 51 53 52 52 53 55 57 58 59 56 47 48 56 72 82 83 87 88 90
61 59 56 54 54 54 55 55 55 56 56 58 59 61 57 56 57 53 42 42 41 52 72 78 90 91 95
59 58 59 59 58 58 58 58 59 62 63 66 65 60 51 47 45 42 36 37 36 34 42 58 69 86 93
67 65 63 62 61 61 59 60 63 66 65 72 68 63 48 48 45 41 39 38 38 39 42 49 55 59 60
69 67 67 66 63 60 56 54 55 60 60 59 60 55 53 46 44 43 42 43 44 45 48 49 51 53 56
76 75 69 64 63 60 56 52 50 48 46 49 50 48 51 49 45 46 48 48 51 56 61 63 61 59 58
80 76 73 70 66 59 54 53 49 47 47 49 49 50 51 51 47 47 52 58 65 66 68 67 67 68 68
83 80 76 71 67 58 54 52 51 50 50 51 51 52 54 54 51 53 53 60 68 73 75 75 74 73 75
89 82 77 69 64 60 58 57 57 55 55 57 57 56 59 57 57 58 60 64 68 70 73 77 78 79 78
93 85 78 73 70 68 65 61 60 58 57 58 59 60 62 65 63 64 71 72 71 71 71 73 73 76 79

GFSFLT2_prec_cthk_126.txt.gz
RH
94 97 97 84 82 73 65 52 42 37 35 34 33 36 36 36 35 35 32 31 34 36 34 36 33 33 33
97 97 85 81 78 71 59 53 47 38 39 35 36 38 38 37 35 36 36 34 38 41 39 38 39 35 35
97 87 84 86 80 69 58 47 45 41 37 38 39 41 40 38 38 39 38 38 43 46 46 47 45 41 39
89 88 86 81 72 63 55 51 48 43 43 46 46 45 43 41 41 41 41 41 47 49 54 56 57 53 50
90 85 80 76 67 58 54 53 50 50 51 48 48 45 44 43 44 44 45 44 53 57 61 66 66 63 62
85 82 78 72 64 60 59 59 59 59 52 50 50 49 47 48 47 46 47 46 57 62 65 68 65 73 70
84 81 76 71 65 63 62 62 58 52 53 52 52 53 50 50 50 51 52 49 59 66 72 72 72 72 75
89 83 79 73 63 63 65 59 55 55 56 56 55 54 54 54 53 54 55 49 54 69 71 73 74 81 83
87 84 78 70 66 63 60 59 59 58 57 58 58 59 58 49 52 56 54 46 48 63 77 82 78 84 90
85 84 79 72 67 67 68 65 63 63 63 62 63 65 56 50 47 48 47 42 41 43 65 71 78 86 93
83 82 79 77 75 73 72 70 68 68 66 65 64 66 63 51 47 45 43 41 39 39 39 51 62 71 82
85 82 79 79 78 77 74 70 65 63 65 64 59 58 60 53 44 43 43 42 40 40 42 44 51 62 70
87 86 84 83 80 77 73 67 63 60 56 53 51 48 48 48 46 45 45 45 45 47 48 49 52 54 57
89 91 85 87 81 78 73 69 64 56 51 50 49 49 48 49 48 47 47 50 50 52 59 63 66 67 67
94 90 89 88 82 79 75 68 63 55 52 50 50 51 51 51 50 52 53 55 59 65 69 71 71 73 74
95 91 91 87 84 80 74 66 59 57 57 56 56 54 53 52 53 56 57 57 60 67 73 78 81 81 79
97 96 94 93 88 78 72 66 62 60 60 60 59 57 57 57 58 58 58 60 63 73 77 75 76 78 78

GFSFLT2_prec_cthk_132.txt.gz
RH
95 89 92 94 93 91 94 97 94 93 88 78 64 52 47 44 43 44 43 40 36 39 40 42 37 33 30
94 92 94 93 94 91 98 99 95 89 84 73 57 53 55 56 55 48 42 39 40 41 45 46 38 36 32
97 97 96 97 95 96 97 98 96 86 82 71 69 62 60 55 50 47 46 44 41 48 48 43 38 37 34
97 98 97 97 97 96 98 98 94 92 89 81 68 61 56 55 57 53 49 48 48 50 46 46 42 41 38
99 98 98 97 97 98 99 95 95 92 81 70 63 60 59 60 58 54 51 49 49 50 49 47 47 48 42
98 97 98 99 98 98 96 97 94 86 79 72 72 73 67 65 58 55 56 53 52 52 51 54 52 50 49
98 98 99 99 98 98 97 94 93 85 80 77 77 70 69 64 60 61 59 53 50 54 58 59 58 54 51
97 98 99 99 99 98 97 97 94 86 81 80 74 73 68 60 64 61 57 52 50 58 62 63 59 58 57
98 98 99 98 98 97 98 97 94 91 87 83 79 73 71 71 69 63 53 53 52 63 67 67 64 63 64
91 97 97 98 98 98 98 98 94 90 86 84 81 79 76 72 67 55 56 58 53 64 69 68 74 74 73
73 88 94 98 97 97 98 97 95 91 88 87 86 83 80 73 65 55 53 59 54 57 74 72 77 80 76
77 80 94 97 97 96 97 98 96 95 94 93 90 86 82 76 70 56 51 51 48 48 59 73 77 82 83
79 88 97 97 98 96 95 95 96 96 95 94 91 86 81 76 69 63 51 48 47 45 44 55 70 72 76
85 88 94 98 97 98 98 98 97 96 95 91 89 85 78 67 62 58 51 49 46 44 43 42 47 54 63
90 92 94 96 98 99 98 98 97 93 89 85 82 78 72 64 59 57 52 50 47 45 46 44 45 46 50
94 96 98 98 98 98 98 98 97 89 87 83 78 74 70 65 60 59 54 51 52 50 48 49 49 54 60
96 97 98 99 98 98 98 97 97 96 91 82 78 74 68 65 65 63 56 52 54 56 53 57 64 66 68

GFSFLT2_prec_cthk_135.txt.gz
RH
90 96 97 93 96 96 96 94 92 90 88 91 93 92 85 74 60 51 44 46 50 45 38 40 41 42 40
91 97 95 96 97 96 96 96 95 93 90 93 93 89 86 69 58 51 53 56 50 44 43 46 44 45 40
94 93 95 92 95 96 95 98 96 96 95 92 91 88 80 69 63 58 60 55 48 46 48 47 51 48 41
95 95 94 95 95 97 97 98 98 98 96 95 93 90 82 72 70 68 60 58 54 52 50 54 53 49 43
96 94 93 98 96 96 96 98 98 98 98 96 95 93 84 74 67 63 62 61 57 52 57 56 55 52 46
97 97 98 97 96 97 98 97 98 97 99 99 97 88 78 72 67 68 69 65 58 56 61 62 59 53 51
90 90 90 92 90 89 93 99 98 98 98 98 95 88 81 82 83 78 72 67 60 66 68 63 59 56 55
69 68 73 74 76 79 92 96 98 99 99 97 97 92 88 89 82 79 75 68 68 70 71 67 63 60 59
50 51 56 60 69 77 88 95 94 97 97 98 97 94 92 87 84 80 74 73 69 70 74 70 66 65 64
55 53 56 58 63 62 66 73 88 95 95 95 97 96 95 91 86 84 80 71 69 70 75 73 72 70 71
59 58 62 63 63 65 71 73 83 90 96 93 95 96 96 90 86 84 73 75 75 69 79 77 73 77 77
64 66 69 71 75 77 75 77 87 96 98 99 96 96 96 96 89 82 75 72 75 67 78 78 81 83 83
64 69 74 82 83 83 83 85 97 98 98 99 98 98 97 95 92 87 78 66 65 63 67 79 78 83 86
59 66 74 77 87 95 91 89 97 99 98 98 98 98 97 94 92 86 80 65 58 57 54 66 78 78 81
60 66 73 85 85 94 97 92 93 98 98 98 98 98 98 94 88 78 69 61 57 54 50 48 60 73 71
60 71 77 82 88 96 91 96 98 98 98 98 98 98 97 92 85 72 67 60 56 53 50 47 45 46 53
62 70 79 89 89 97 98 97 97 98 96 98 98 97 94 86 76 71 66 62 57 55 51 50 47 46 47

GFSFLT2_prec_cthk_138.txt.gz
RH
93 95 94 93 94 93 91 95 94 93 95 97 96 96 93 91 90 84 79 71 60 53 47 47 49 45 38
97 96 95 95 94 91 92 93 91 94 96 97 98 98 96 94 92 86 76 70 61 54 50 52 53 44 40
95 94 94 96 92 93 93 93 91 94 96 98 97 98 97 97 92 87 78 68 62 61 56 57 54 47 46
94 92 91 91 91 92 91 91 92 95 95 95 97 98 98 98 94 88 81 75 71 67 61 59 63 54 51
90 91 91 91 92 92 88 88 86 85 90 86 90 92 96 98 97 94 86 78 75 71 64 66 64 63 55
94 92 90 88 85 80 78 74 69 75 78 78 80 89 96 96 96 93 86 81 76 70 67 74 67 64 63
65 62 63 65 61 59 61 61 61 59 64 68 74 80 87 92 94 91 87 85 80 77 79 79 74 72 74
46 47 48 47 46 45 48 52 53 55 59 62 67 71 81 85 88 85 89 91 88 84 83 84 84 82 76
46 44 47 50 47 46 48 51 52 57 61 63 67 75 78 84 87 93 93 92 89 85 85 91 88 83 80
45 47 53 49 52 54 56 55 54 58 62 65 69 74 78 84 90 98 96 94 89 83 87 93 90 88 84
45 48 52 52 54 61 61 62 61 64 65 70 72 77 80 88 94 98 97 95 87 83 89 93 90 88 84
41 43 48 53 58 61 64 64 65 69 73 73 78 80 89 98 98 99 97 91 83 86 90 95 93 93 92
38 41 47 52 52 59 61 67 72 91 90 80 83 97 98 99 98 98 98 88 83 90 87 96 98 96 94
36 35 39 45 53 56 66 64 69 87 99 92 90 97 98 98 98 98 98 92 78 82 82 96 99 97 97
37 39 37 41 49 55 62 68 72 90 94 91 95 91 98 98 98 98 98 96 86 73 75 82 96 96 98
33 37 40 45 49 52 56 63 69 89 95 96 97 97 97 98 98 98 98 92 80 71 66 66 81 91 89
33 34 38 41 50 54 63 66 71 83 96 97 96 97 97 97 98 98 98 87 73 67 62 60 58 73 80